Weather History for Durango, CO

Change the Weather History Date:

Tuesday, February 25, 2014

  Actual Average Record
Temperature  
Mean Temperature 37 °F 32 °F  
Max Temperature 59 °F 46 °F 71 °F (1986)
Min Temperature 15 °F 18 °F 5 °F (1974)
Degree Days  
Heating Degree Days 28 33  
Month to date heating degree days 776 923  
Since 1 July heating degree days 4849 5077  
Cooling Degree Days 0 0  
Month to date cooling degree days 0 0  
Year to date cooling degree days 0 0  
Moisture  
Dew Point 11 °F    
Average Humidity 41    
Maximum Humidity 67    
Minimum Humidity 14    
Precipitation  
Precipitation 0.00 in 0.04 in 0.67 in (2003)
Month to date precipitation 0.26 1.05  
Year to date precipitation 0.39 2.17  
Sea Level Pressure  
Sea Level Pressure 30.05 in    
Wind  
Wind Speed 7 mph (West)    
Max Wind Speed 26 mph    
Max Gust Speed 35 mph    
Visibility 10 miles    
Events      
T = Trace of Precipitation, MM = Missing Value Source: NWS Daily Summary

Daily Weather History Graph

Daily Weather History Graph

Search for Another Location

Airport:

Trip Planner

Search our weather history database for the weather conditions in past years. The results will help you decide how hot, cold, wet, or windy it might be!

Date:

Astronomy

Feb. 25, 2014 Rise Set
Actual Time 6:47 AM MST 6:01 PM MST
Civil Twilight 6:21 AM MST 6:27 PM MST
Nautical Twilight 5:50 AM MST 6:57 PM MST
Astronomical Twilight 5:20 AM MST 7:27 PM MST
Moon 3:41 AM MST (2/25) 2:13 PM MST (2/25)
Length of Visible Light 12h 06m
Length of Day
11h 13m
Waning Crescent, 17% of the Moon is Illuminated
Feb 25
Waning Crescent
Mar 1
New
Mar 8
First Quarter
Mar 16
Full
Mar 23
Last Quarter

Hourly Weather History & Observations

Time (MST) Temp. Windchill Dew Point Humidity Pressure Visibility Wind Dir Wind Speed Gust Speed Precip Events Conditions
12:53 AM 26.1 °F - 10.0 °F 51% 30.09 in 10.0 mi Calm Calm - N/A   Clear
1:53 AM 25.0 °F 19.3 °F 10.0 °F 53% 30.11 in 10.0 mi North 4.6 mph - N/A   Clear
2:53 AM 19.0 °F 13.9 °F 8.1 °F 62% 30.11 in 10.0 mi ENE 3.5 mph - N/A   Clear
3:53 AM 25.0 °F - 10.0 °F 53% 30.09 in 10.0 mi Calm Calm - N/A   Clear
4:53 AM 21.9 °F - 9.0 °F 58% 30.10 in 10.0 mi Calm Calm - N/A   Clear
5:53 AM 17.1 °F 11.7 °F 8.1 °F 68% 30.15 in 10.0 mi ENE 3.5 mph - N/A   Clear
6:53 AM 17.1 °F 11.7 °F 8.1 °F 68% 30.18 in 10.0 mi East 3.5 mph - N/A   Clear
7:53 AM 26.1 °F 21.9 °F 10.9 °F 53% 30.16 in 10.0 mi East 3.5 mph - N/A   Clear
8:53 AM 34.0 °F 29.8 °F 12.9 °F 42% 30.16 in 10.0 mi East 4.6 mph - N/A   Clear
9:53 AM 42.1 °F 39.2 °F 10.9 °F 28% 30.12 in 10.0 mi Variable 4.6 mph - N/A   Clear
10:53 AM 50.0 °F - 12.9 °F 23% 30.08 in 10.0 mi Calm Calm - N/A   Clear
11:53 AM 55.9 °F - 12.0 °F 18% 30.04 in 10.0 mi SW 10.4 mph 23.0 mph N/A   Clear
12:53 PM 57.9 °F - 10.9 °F 16% 29.98 in 10.0 mi West 16.1 mph 28.8 mph N/A   Clear
1:53 PM 59.0 °F - 10.0 °F 14% 29.94 in 10.0 mi WSW 19.6 mph 28.8 mph N/A   Clear
2:53 PM 59.0 °F - 10.0 °F 14% 29.94 in 10.0 mi WSW 20.7 mph 28.8 mph N/A   Clear
3:53 PM 57.9 °F - 10.0 °F 15% 29.92 in 10.0 mi West 17.3 mph 27.6 mph N/A   Clear
4:53 PM 55.0 °F - 9.0 °F 16% 29.95 in 10.0 mi West 16.1 mph 25.3 mph N/A   Clear
5:53 PM 52.0 °F - 10.0 °F 19% 30.00 in 10.0 mi West 16.1 mph - N/A   Clear
6:53 PM 46.0 °F 41.9 °F 10.9 °F 24% 30.05 in 10.0 mi WSW 8.1 mph - N/A   Clear
7:53 PM 44.1 °F 39.5 °F 10.9 °F 26% 30.03 in 10.0 mi WSW 8.1 mph - N/A   Clear
8:53 PM 41.0 °F 38.0 °F 10.9 °F 29% 30.01 in 10.0 mi West 4.6 mph - N/A   Clear
9:53 PM 39.0 °F 34.8 °F 12.9 °F 34% 29.99 in 10.0 mi NNW 5.8 mph - N/A   Clear
10:53 PM 32.0 °F 26.4 °F 14.0 °F 48% 29.99 in 10.0 mi NE 5.8 mph - N/A   Clear
11:53 PM 30.9 °F - 15.1 °F 52% 29.96 in 10.0 mi Calm Calm - N/A   Clear